Klawock, AK

9:18 AM AKDT on April 24, 2018 (GMT -0800)
Klawock

Weather History for PAKW - August, 2013

Change the Weather History Date:

Friday, August 9, 2013

  Actual Average Record
Temperature  
Mean Temperature 58 °F -  
Max Temperature 64 °F 63 °F 82 °F (2004)
Min Temperature 53 °F 50 °F 44 °F (1998)
Degree Days  
Heating Degree Days 6    
Growing Degree Days 8 (Base 50)    
Moisture  
Dew Point 55 °F    
Average Humidity 89    
Maximum Humidity 100    
Minimum Humidity 72    
Precipitation  
Precipitation 0.05 in - - ()
Sea Level Pressure  
Sea Level Pressure 30.07 in    
Wind  
Wind Speed 3 mph (SSW)    
Max Wind Speed 7 mph    
Max Gust Speed -    
Visibility 8 miles    
Events Rain    
Averages and records for this station are not official NWS values.
T = Trace of Precipitation, MM = Missing Value Source: NWS Daily Summary

Daily Weather History Graph

Daily Weather History Graph

Search for Another Location

Airport or City:

Astronomy

Aug. 09, 2013 Rise Set
Actual Time 5:14 AM AKDT 8:40 PM AKDT
Civil Twilight 4:29 AM AKDT 9:24 PM AKDT
Nautical Twilight 3:27 AM AKDT 10:25 PM AKDT
Astronomical Twilight 1:44 AM AKDT 12:02 AM AKDT
Moon 8:50 AM AKDT (8/9) 9:05 PM AKDT (8/9)
Length of Visible Light 16h 54m
Length of Day
15h 25m
Waxing Crescent, 8% of the Moon is Illuminated
Aug 9
Waxing Crescent
Aug 14
First Quarter
Aug 20
Full
Aug 28
Last Quarter
Sep 5
New

Hourly Weather History & Observations

Time (AKDT) Temp. Dew Point Humidity Pressure Visibility Wind Dir Wind Speed Gust Speed Precip Events Conditions
12:18 AM 57.2 °F 57.2 °F 100% 30.06 in 10.0 mi Calm Calm - N/A   Overcast
12:43 AM 57.2 °F 57.2 °F 100% 30.06 in 10.0 mi South 3.5 mph - N/A   Overcast
12:53 AM 57.9 °F 57.9 °F 100% 30.06 in 9.0 mi Calm Calm - N/A   Overcast
1:45 AM 57.2 °F 57.2 °F 100% 30.06 in 7.0 mi SSW 3.5 mph - N/A   Overcast
1:53 AM 57.9 °F 57.0 °F 97% 30.06 in 3.0 mi SW 3.5 mph - N/A   Overcast
2:53 AM 57.0 °F 55.9 °F 96% 30.07 in 9.0 mi SW 4.6 mph - N/A   Overcast
3:53 AM 55.9 °F 55.9 °F 100% 30.07 in 8.0 mi Calm Calm - N/A   Overcast
4:07 AM 55.4 °F 55.4 °F 100% 30.07 in 2.0 mi SSW 3.5 mph - 0.01 in Rain Light Rain
4:25 AM 55.4 °F 55.4 °F 100% 30.07 in 4.0 mi Calm Calm - 0.01 in   Overcast
4:53 AM 55.9 °F 55.9 °F 100% 30.06 in 7.0 mi South 3.5 mph - 0.01 in   Overcast
5:28 AM 55.4 °F 55.4 °F 100% 30.06 in 8.0 mi South 3.5 mph - N/A   Overcast
5:53 AM 55.9 °F 55.0 °F 97% 30.07 in 5.0 mi SSW 4.6 mph - 0.00 in Rain Light Rain
6:27 AM 55.4 °F 55.4 °F 100% 30.07 in 2.5 mi SSW 4.6 mph - 0.02 in Rain Light Rain
6:53 AM 55.9 °F 55.9 °F 100% 30.07 in 4.0 mi Variable 3.5 mph - 0.02 in   Overcast
7:20 AM 55.4 °F 55.4 °F 100% 30.07 in 2.0 mi Calm Calm - 0.01 in Rain Light Rain
7:53 AM 57.0 °F 55.9 °F 96% 30.08 in 4.0 mi SSW 3.5 mph - 0.01 in   Overcast
8:34 AM 57.2 °F 55.4 °F 94% 30.08 in 10.0 mi Calm Calm - 0.01 in   Overcast
8:45 AM 57.2 °F 55.4 °F 94% 30.07 in 10.0 mi SSE 3.5 mph - 0.01 in   Overcast
8:53 AM 57.9 °F 55.9 °F 93% 30.07 in 10.0 mi SSE 3.5 mph - 0.01 in   Overcast
9:01 AM 57.2 °F 57.2 °F 100% 30.07 in 10.0 mi South 3.5 mph - N/A   Overcast
9:53 AM 57.9 °F 55.9 °F 93% 30.08 in 10.0 mi SSW 3.5 mph - N/A   Overcast
10:48 AM 60.8 °F 57.2 °F 88% 30.08 in 10.0 mi Variable 4.6 mph - N/A   Overcast
10:53 AM 60.1 °F 57.0 °F 90% 30.08 in 10.0 mi South 4.6 mph - N/A   Overcast
11:02 AM 60.8 °F 55.4 °F 82% 30.08 in 10.0 mi SSW 3.5 mph - N/A   Overcast
11:53 AM 62.1 °F 57.0 °F 84% 30.08 in 10.0 mi SW 5.8 mph - N/A   Overcast
12:14 PM 62.6 °F 57.2 °F 82% 30.08 in 10.0 mi South 4.6 mph - N/A   Overcast
12:53 PM 62.1 °F 57.0 °F 84% 30.08 in 10.0 mi SSW 4.6 mph - N/A   Overcast
1:53 PM 63.0 °F 55.9 °F 78% 30.08 in 10.0 mi Calm Calm - N/A   Overcast
2:53 PM 63.0 °F 57.0 °F 81% 30.08 in 10.0 mi WSW 4.6 mph - N/A   Overcast
3:09 PM 62.6 °F 57.2 °F 82% 30.08 in 10.0 mi WSW 5.8 mph - N/A   Overcast
3:26 PM 62.6 °F 55.4 °F 77% 30.08 in 10.0 mi WSW 5.8 mph - N/A   Mostly Cloudy
3:33 PM 62.6 °F 55.4 °F 77% 30.08 in 10.0 mi SW 4.6 mph - N/A   Mostly Cloudy
3:53 PM 62.1 °F 55.9 °F 80% 30.08 in 10.0 mi SW 5.8 mph - N/A   Mostly Cloudy
4:04 PM 62.6 °F 55.4 °F 77% 30.08 in 10.0 mi Variable 3.5 mph - N/A   Mostly Cloudy
4:50 PM 62.6 °F 53.6 °F 72% 30.07 in 10.0 mi South 4.6 mph - N/A   Overcast
4:53 PM 62.1 °F 54.0 °F 75% 30.07 in 10.0 mi SSE 4.6 mph - N/A   Overcast
5:12 PM 60.8 °F 55.4 °F 82% 30.07 in 10.0 mi South 4.6 mph - N/A   Overcast
5:53 PM 61.0 °F 54.0 °F 78% 30.06 in 10.0 mi South 5.8 mph - N/A   Overcast
6:01 PM 60.8 °F 53.6 °F 77% 30.06 in 10.0 mi SSW 4.6 mph - N/A   Overcast
6:53 PM 60.1 °F 54.0 °F 80% 30.06 in 10.0 mi South 6.9 mph - N/A   Mostly Cloudy
7:53 PM 59.0 °F 53.1 °F 81% 30.06 in 10.0 mi South 5.8 mph - N/A   Overcast
8:53 PM 57.9 °F 53.1 °F 84% 30.05 in 10.0 mi SSW 6.9 mph - N/A   Overcast
9:53 PM 54.0 °F 52.0 °F 93% 30.05 in 10.0 mi South 4.6 mph - N/A   Clear
10:53 PM 55.0 °F 52.0 °F 89% 30.05 in 10.0 mi South 3.5 mph - N/A   Mostly Cloudy
11:53 PM 53.1 °F 51.1 °F 93% 30.05 in 10.0 mi South 3.5 mph - N/A   Scattered Clouds